Location: Arboyeti
(42.1122°N, 44.6017°E)
Time: 21:12:26
(UTC+00:00)

Cosmos 2237 Rocket - Pass Details

Date: 19 April 2021
Orbit: 836 x 848 km, 71.0° (Epoch: 17 May)

Event Time Altitude Azimuth Distance (km) Brightness Sun altitude
Rises 17:39:27 0° 338° (NNW) 3,401 6.3 -19.4°
Reaches altitude 10° 17:41:57 10° 342° (NNW) 2,461 5.4 -19.7°
Maximum altitude 17:47:33 62° 63° (ENE) 936 2.3 -20.5°
Enters shadow 17:49:17 42° 124° (SE) 1,176 2.4 -20.8°
